Hourly Data Report for June 11, 2018

OTTAWA INTL A
ONTARIO
Current Station Operator: NAVCAN

45°19'00.000" N
75°40'00.000" W
114.90 m
6106001
71628
YOW

Download Data

Hourly Data (June 2018)
Hourly Data Report for June 11, 2018
TIME
LST
Temp Definition
°C
Dew Point Definition
°C
Rel Hum Definition
%
Precip. Amount Definition
mm

Wind Dir Definition
10's deg

Wind Spd Definition
km/h
Visibility Definition
km
Stn Press Definition
kPa
Hmdx Definition


Wind Chill Definition


Weather Definition


00:00 13.5 3.3 50   2 14 24.1 100.47     LegendNANA
01:00 12.7 3.7 54   3 18 24.1 100.50     Clear
02:00 9.7 4.7 71   4 19 24.1 100.53     LegendNANA
03:00 8.6 4.8 77   5 15 24.1 100.55     LegendNANA
04:00 8.2 4.8 79   4 15 24.1 100.58     Clear
05:00 9.1 4.8 74   5 13 24.1 100.62     LegendNANA
06:00 12.1 5.0 62   4 18 24.1 100.69     LegendNANA
07:00 14.1 4.7 53   5 16 24.1 100.72     Clear
08:00 16.4 4.2 44   6 14 24.1 100.75     LegendNANA
09:00 18.0 2.8 36   8 18 24.1 100.78     LegendNANA
10:00 19.0 2.4 33   8 18 24.1 100.76     Clear
11:00 19.5 0.2 27   9 4 24.1 100.77     LegendNANA
12:00 20.8 2.4 29   3 16 24.1 100.75     LegendNANA
13:00 21.2 1.9 27   9 9 24.1 100.67     Clear
14:00 21.5 2.7 29   6 7 24.1 100.61     LegendNANA
15:00 22.3 2.9 28   11 12 24.1 100.55     LegendNANA
16:00 22.3 3.2 28   6 6 24.1 100.52     Clear
17:00 22.4 3.0 28   17 9 24.1 100.46     LegendNANA
18:00 22.0 4.3 31   16 7 24.1 100.47     LegendNANA
19:00 19.7 5.3 38   16 8 24.1 100.53     Mostly Cloudy
20:00 19.1 3.7 36   17 7 24.1 100.56     LegendNANA
21:00 14.0 5.1 55   17 8 24.1 100.53     LegendNANA
22:00 15.4 4.4 48   18 10 24.1 100.56     Mainly Clear
23:00 15.1 5.0 51   20 7 24.1 100.58     LegendNANA

Notes on Data Quality.

Legend

  • E = Estimated
  • M = Missing
  • NA = Not Available*
  • [empty] = Indicates an unobserved value
Date modified: